• In Hungary
  • List of Countries
  • For 7 days
  • Water Temperature
  • Satellite Maps
  • Weather Map
  • News
  • Weather Widgets
  • user-avatar
    Login

    Hourly Weather Zuevka

    Today, 21 August, Tuesday

    Time Temperature Precipitation Wind Pressure Humidity
    00:00 +18°C° 0 mm 2 mps 742 mmHg 89%
    01:00 +17°C° 0 mm 2 mps 742 mmHg 90%
    02:00 +17°C° 0 mm 2 mps 742 mmHg 89%
    03:00 +17°C° 0 mm 3 mps 742 mmHg 89%
    04:00 +17°C° 0 mm 3 mps 742 mmHg 88%
    05:00 +17°C° 0 mm 3 mps 741 mmHg 88%
    06:00 +19°C° 0 mm 4 mps 741 mmHg 82%
    07:00 +21°C° 0 mm 5 mps 741 mmHg 76%
    08:00 +23°C° 0 mm 6 mps 741 mmHg 68%
    09:00 +24°C° 0.2 mm 6 mps 740 mmHg 65%
    10:00 +26°C° 0.2 mm 7 mps 740 mmHg 63%
    11:00 +27°C° 0.2 mm 7 mps 740 mmHg 60%
    12:00 +27°C° 0.9 mm 7 mps 739 mmHg 63%
    13:00 +26°C° 0.9 mm 7 mps 739 mmHg 67%
    14:00 +26°C° 0 mm 6 mps 739 mmHg 71%
    15:00 +25°C° 0.6 mm 5 mps 739 mmHg 74%
    16:00 +23°C° 0.6 mm 5 mps 739 mmHg 76%
    17:00 +22°C° 0.6 mm 5 mps 739 mmHg 79%
    18:00 +20°C° 0.1 mm 4 mps 739 mmHg 83%
    19:00 +19°C° 0.1 mm 4 mps 740 mmHg 86%
    20:00 +17°C° 0.1 mm 3 mps 740 mmHg 90%
    21:00 +17°C° 0 mm 3 mps 740 mmHg 90%
    22:00 +16°C° 0 mm 3 mps 741 mmHg 90%
    23:00 +14°C° 0 mm 3 mps 741 mmHg 90%

    Tomorrow, 22 August, Wednesday

    Time Temperature Precipitation Wind Pressure Humidity
    00:00 +13°C° 0 mm 3 mps 742 mmHg 91%
    01:00 +13°C° 0 mm 3 mps 742 mmHg 91%
    02:00 +12°C° 0 mm 3 mps 742 mmHg 92%
    03:00 +11°C° 0 mm 3 mps 743 mmHg 91%
    04:00 +11°C° 0 mm 3 mps 743 mmHg 91%
    05:00 +10°C° 0 mm 3 mps 743 mmHg 91%
    06:00 +12°C° 0 mm 3 mps 744 mmHg 82%
    07:00 +13°C° 0 mm 4 mps 744 mmHg 74%
    08:00 +15°C° 0 mm 4 mps 744 mmHg 66%
    09:00 +17°C° 0 mm 4 mps 745 mmHg 60%
    10:00 +17°C° 0 mm 5 mps 745 mmHg 54%
    11:00 +19°C° 0 mm 5 mps 745 mmHg 48%
    12:00 +20°C° 0 mm 5 mps 746 mmHg 47%
    13:00 +20°C° 0 mm 5 mps 746 mmHg 45%
    14:00 +21°C° 0 mm 5 mps 746 mmHg 43%
    15:00 +20°C° 0 mm 4 mps 746 mmHg 47%
    16:00 +20°C° 0 mm 3 mps 746 mmHg 51%
    17:00 +19°C° 0 mm 3 mps 746 mmHg 54%
    18:00 +17°C° 0 mm 3 mps 747 mmHg 60%
    19:00 +15°C° 0 mm 2 mps 747 mmHg 66%
    20:00 +13°C° 0 mm 2 mps 747 mmHg 71%
    21:00 +13°C° 0 mm 2 mps 748 mmHg 75%
    22:00 +12°C° 0 mm 2 mps 748 mmHg 78%
    23:00 +11°C° 0 mm 1 mps 748 mmHg 81%

    Day after tomorrow, 23 August, Thursday

    Time Temperature Precipitation Wind Pressure Humidity
    00:00 +11°C° 0 mm 1 mps 749 mmHg 82%
    01:00 +10°C° 0 mm 1 mps 749 mmHg 83%
    02:00 +10°C° 0 mm 1 mps 749 mmHg 84%
    03:00 +10°C° 0 mm 1 mps 749 mmHg 85%
    04:00 +9°C° 0 mm 1 mps 750 mmHg 85%
    05:00 +9°C° 0 mm 1 mps 750 mmHg 85%
    06:00 +11°C° 0 mm 1 mps 750 mmHg 78%
    07:00 +14°C° 0 mm 1 mps 750 mmHg 70%
    08:00 +15°C° 0 mm 0 mps 750 mmHg 62%
    09:00 +18°C° 0 mm 1 mps 750 mmHg 56%
    10:00 +20°C° 0 mm 1 mps 750 mmHg 51%
    11:00 +21°C° 0 mm 1 mps 750 mmHg 46%
    12:00 +22°C° 0 mm 1 mps 750 mmHg 44%
    13:00 +22°C° 0 mm 1 mps 750 mmHg 42%
    14:00 +22°C° 0 mm 1 mps 749 mmHg 41%
    15:00 +22°C° 0 mm 1 mps 749 mmHg 44%
    16:00 +22°C° 0 mm 1 mps 749 mmHg 47%
    17:00 +20°C° 0 mm 0 mps 748 mmHg 50%
    18:00 +20°C° 0 mm 1 mps 748 mmHg 54%
    19:00 +18°C° 0 mm 1 mps 749 mmHg 59%
    20:00 +14°C° 0 mm 1 mps 749 mmHg 63%
    21:00 +14°C° 0 mm 1 mps 749 mmHg 65%
    22:00 +13°C° 0 mm 1 mps 749 mmHg 67%
    23:00 +13°C° 0 mm 1 mps 749 mmHg 69%

    24 August, Friday

    Time Temperature Precipitation Wind Pressure Humidity
    00:00 +12°C° 0 mm 1 mps 749 mmHg 70%
    01:00 +12°C° 0 mm 1 mps 749 mmHg 71%
    02:00 +12°C° 0 mm 1 mps 749 mmHg 72%
    03:00 +12°C° 0 mm 1 mps 749 mmHg 73%
    04:00 +11°C° 0 mm 1 mps 749 mmHg 74%
    05:00 +11°C° 0 mm 1 mps 748 mmHg 75%
    06:00 +13°C° 0 mm 1 mps 748 mmHg 69%
    07:00 +15°C° 0 mm 2 mps 748 mmHg 64%
    08:00 +18°C° 0 mm 2 mps 748 mmHg 58%
    09:00 +19°C° 0 mm 2 mps 748 mmHg 54%
    10:00 +20°C° 0 mm 2 mps 748 mmHg 50%
    11:00 +22°C° 0 mm 3 mps 748 mmHg 46%
    12:00 +23°C° 0 mm 2 mps 748 mmHg 45%
    13:00 +24°C° 0 mm 2 mps 748 mmHg 44%
    14:00 +24°C° 0 mm 2 mps 747 mmHg 42%
    15:00 +24°C° 0 mm 2 mps 747 mmHg 46%
    16:00 +24°C° 0 mm 2 mps 747 mmHg 50%
    17:00 +23°C° 0 mm 1 mps 746 mmHg 53%
    18:00 +20°C° 0 mm 2 mps 746 mmHg 57%
    19:00 +18°C° 0 mm 2 mps 746 mmHg 61%
    20:00 +16°C° 0 mm 2 mps 746 mmHg 65%
    21:00 +15°C° 0 mm 2 mps 746 mmHg 66%
    22:00 +15°C° 0 mm 2 mps 746 mmHg 66%
    23:00 +14°C° 0 mm 2 mps 746 mmHg 67%

    25 August, Saturday

    Time Temperature Precipitation Wind Pressure Humidity
    00:00 +14°C° 0 mm 2 mps 746 mmHg 68%
    01:00 +14°C° 0 mm 2 mps 746 mmHg 69%
    02:00 +13°C° 0 mm 2 mps 746 mmHg 70%
    03:00 +13°C° 0 mm 2 mps 746 mmHg 71%
    04:00 +13°C° 0 mm 2 mps 746 mmHg 72%
    05:00 +12°C° 0 mm 2 mps 746 mmHg 73%
    06:00 +15°C° 0 mm 2 mps 746 mmHg 68%
    07:00 +17°C° 0 mm 3 mps 746 mmHg 64%
    08:00 +19°C° 0 mm 3 mps 746 mmHg 59%
    09:00 +20°C° 0 mm 3 mps 746 mmHg 54%
    10:00 +22°C° 0 mm 4 mps 746 mmHg 48%
    11:00 +25°C° 0 mm 4 mps 746 mmHg 43%
    12:00 +25°C° 0 mm 4 mps 746 mmHg 42%
    13:00 +26°C° 0 mm 4 mps 745 mmHg 41%
    14:00 +26°C° 0 mm 4 mps 745 mmHg 41%
    15:00 +25°C° 0 mm 3 mps 745 mmHg 45%
    16:00 +25°C° 0 mm 3 mps 745 mmHg 49%
    17:00 +24°C° 0 mm 2 mps 744 mmHg 54%
    18:00 +21°C° 0 mm 2 mps 744 mmHg 58%
    19:00 +19°C° 0 mm 3 mps 745 mmHg 63%
    20:00 +17°C° 0 mm 3 mps 745 mmHg 67%
    21:00 +17°C° 0 mm 3 mps 745 mmHg 67%
    22:00 +16°C° 0 mm 3 mps 745 mmHg 68%
    23:00 +16°C° 0 mm 3 mps 745 mmHg 68%

    26 August, Sunday

    Time Temperature Precipitation Wind Pressure Humidity
    00:00 +15°C° 0 mm 2 mps 745 mmHg 68%
    01:00 +15°C° 0 mm 2 mps 745 mmHg 67%
    02:00 +14°C° 0 mm 2 mps 745 mmHg 67%
    03:00 +14°C° 0 mm 2 mps 745 mmHg 67%
    04:00 +13°C° 0 mm 3 mps 745 mmHg 67%
    05:00 +13°C° 0 mm 3 mps 745 mmHg 67%
    06:00 +14°C° 0 mm 3 mps 745 mmHg 63%
    07:00 +17°C° 0 mm 3 mps 745 mmHg 60%
    08:00 +19°C° 0 mm 3 mps 745 mmHg 56%
    09:00 +21°C° 0 mm 4 mps 745 mmHg 51%
    10:00 +23°C° 0 mm 4 mps 745 mmHg 46%
    11:00 +26°C° 0 mm 5 mps 744 mmHg 41%
    12:00 +27°C° 0 mm 5 mps 744 mmHg 39%
    13:00 +27°C° 0 mm 5 mps 744 mmHg 37%
    14:00 +28°C° 0 mm 5 mps 744 mmHg 36%
    15:00 +27°C° 0 mm 4 mps 744 mmHg 41%
    16:00 +26°C° 0 mm 3 mps 743 mmHg 46%
    17:00 +26°C° 0 mm 3 mps 743 mmHg 51%
    18:00 +24°C° 0 mm 3 mps 743 mmHg 55%
    19:00 +21°C° 0 mm 3 mps 743 mmHg 60%
    20:00 +19°C° 0 mm 3 mps 743 mmHg 64%
    21:00 +19°C° 0 mm 3 mps 743 mmHg 65%
    22:00 +18°C° 0 mm 3 mps 743 mmHg 65%
    23:00 +18°C° 0 mm 3 mps 743 mmHg 65%
    Show more